CDT,Max TemperatureF,Mean TemperatureF,Min TemperatureF,Max Dew PointF,MeanDew PointF,Min DewpointF,Max Humidity, Mean Humidity, Min Humidity, Max Sea Level PressureIn, Mean Sea Level PressureIn, Min Sea Level PressureIn, Max VisibilityMiles, Mean VisibilityMiles, Min VisibilityMiles, Max Wind SpeedMPH, Mean Wind SpeedMPH, Max Gust SpeedMPH,PrecipitationIn, CloudCover, Events, WindDirDegrees
2013-4-1,32,28,19,14,12,10,80,52,41,30.21,30.14,29.99,10,10,10,16,9,25,0.00,0,,300
2013-4-2,35,24,14,19,13,10,93,63,35,30.35,30.27,30.21,10,10,10,16,3,22,0.00,0,,294
2013-4-3,44,27,10,19,13,5,93,56,23,30.46,30.35,30.21,10,10,10,13,2,16,0.00,0,,181
2013-4-4,50,42,32,34,25,18,75,52,37,30.20,30.08,30.01,10,10,10,14,7,21,0.00,0,Rain,259
2013-4-5,46,32,19,32,21,14,100,64,27,30.25,30.16,30.04,10,10,7,15,3,22,0.00,1,Rain,106
2013-4-6,55,44,33,46,32,16,100,68,41,30.05,29.73,29.50,10,9,4,20,10,26,0.00,3,Rain,151
2013-4-7,50,42,35,34,32,32,87,74,50,29.97,29.86,29.68,10,10,10,15,8,24,0.00,5,,289
2013-4-8,51,43,35,39,35,32,100,80,58,30.01,29.82,29.72,10,9,3,12,6,,0.06,3,Rain-Snow,68
2013-4-9,41,38,33,37,35,32,100,94,87,30.08,30.00,29.86,10,7,1,20,7,31,1.07,8,Rain-Snow-Thunderstorm,54
2013-4-10,33,32,32,34,31,27,100,95,75,30.11,30.02,29.90,10,8,3,17,8,26,0.39,8,Rain-Snow-Thunderstorm,64
2013-4-11,35,34,32,34,31,27,100,92,75,29.88,29.72,29.63,10,5,1,24,15,36,0.11,8,Rain-Snow,75
2013-4-12,33,32,30,32,30,28,100,93,81,29.79,29.68,29.58,10,8,1,9,5,,0.00,7,Snow,309
2013-4-13,35,30,26,32,27,23,100,81,60,30.00,29.88,29.79,10,10,3,14,6,23,0.00,6,Snow,269
2013-4-14,39,32,24,37,31,25,100,93,80,30.00,29.80,29.56,10,8,2,20,6,26,0.75,7,Rain-Snow,91
2013-4-15,48,39,30,39,31,27,100,73,46,29.99,29.78,29.60,10,7,0,20,6,30,0.05,4,Fog-Rain,251
2013-4-16,48,38,28,28,28,25,93,70,43,30.32,30.17,29.98,10,10,10,12,4,18,0.00,3,,288
2013-4-17,39,32,26,36,32,25,100,88,70,30.32,30.15,29.84,10,9,2,24,6,36,0.41,6,Rain-Thunderstorm,73
2013-4-18,41,37,33,39,37,32,100,96,87,29.83,29.55,29.33,10,6,1,16,7,21,0.11,8,Rain,27
2013-4-19,35,32,30,32,27,21,100,81,56,29.95,29.57,29.33,10,8,2,26,12,34,0.01,5,Rain-Snow,289
2013-4-20,42,30,17,23,15,7,100,56,23,30.35,30.21,29.97,10,10,10,14,3,18,0.00,0,,313
2013-4-21,51,40,28,43,31,19,100,71,47,30.43,30.29,30.14,10,8,0,17,7,25,0.07,3,Rain-Snow,142
2013-4-22,48,46,44,46,43,39,100,86,71,30.18,30.10,29.96,10,9,2,12,5,23,0.01,6,Rain,154
2013-4-23,48,39,30,46,31,23,100,80,56,30.05,30.02,29.91,10,9,2,16,7,21,0.00,6,Rain,308
2013-4-24,51,35,19,36,24,18,100,64,33,30.07,30.01,29.93,10,10,10,14,3,21,0.00,1,,239
2013-4-25,48,39,30,34,30,23,93,72,40,30.25,30.15,29.97,10,10,10,14,7,17,0.00,5,Rain,262
2013-4-26,71,50,30,43,34,23,87,46,27,30.22,30.13,30.07,10,10,10,16,6,28,0.00,1,,201
2013-4-27,71,58,42,45,42,37,93,58,33,30.18,30.11,30.01,10,10,10,14,6,18,0.00,0,,199
2013-4-28,73,52,32,43,38,32,100,59,25,30.01,29.87,29.76,10,10,5,12,3,21,0.00,0,Thunderstorm,190
2013-4-29,73,64,55,52,48,41,88,59,43,29.82,29.75,29.65,10,10,10,17,4,24,0.00,2,Rain-Thunderstorm,174
2013-4-30,82,68,55,55,50,37,82,50,30,29.98,29.68,29.60,10,10,10,20,10,29,0.00,1,Rain-Thunderstorm,221